KN4QD-13 Weather Reports


time (UTC)temp
C
wind
direction
speed
KPH
gust
KPH
rain 1hr
cm
rain 24hr
cm
rain mn
cm
humidity
%
barometer
mb
20260505102217 10 0.0 0.0 0.00 0.00 0.00 72 1015.8
20260505101217 10 0.0 0.0 0.00 0.00 0.00 71 1016.0
20260505100217 10 0.0 0.0 0.00 0.00 0.00 70 1016.2
20260505095237 11 0.0 0.0 0.00 0.00 0.00 69 1016.4
20260505094217 11 0.0 0.0 0.00 0.00 0.00 69 1016.2
20260505093217 11 0.0 0.0 0.00 0.00 0.00 69 1016.4
20260505092237 11 0.0 0.0 0.00 0.00 0.00 66 1016.4
20260505091217 11 0.0 0.0 0.00 0.00 0.00 65 1016.5
20260505090237 11 0.0 0.0 0.00 0.00 0.00 68 1016.5
20260505085217 11 0.0 0.0 0.00 0.00 0.00 66 1016.5
20260505084217 11 0.0 0.0 0.00 0.00 0.00 67 1016.5
20260505083217 11 0.0 0.0 0.00 0.00 0.00 66 1016.8
20260505082217 11 0.0 0.0 0.00 0.00 0.00 68 1016.8
20260505081217 11 0.0 0.0 0.00 0.00 0.00 66 1016.7
20260505080217 11 0.0 0.0 0.00 0.00 0.00 69 1016.6
20260505075217 11 0.0 0.0 0.00 0.00 0.00 68 1016.4
20260505074216 11 0.0 0.0 0.00 0.00 0.00 70 1016.6
20260505073237 11 0.0 0.0 0.00 0.00 0.00 67 1016.7
20260505072217 11 0.0 0.0 0.00 0.00 0.00 69 1016.8
20260505071237 11 0.0 0.0 0.00 0.00 0.00 69 1016.9
20260505070217 11 0.0 0.0 0.00 0.00 0.00 68 1016.9
20260505065216 11 0.0 0.0 0.00 0.00 0.00 69 1017.1
20260505064217 11 0.0 0.0 0.00 0.00 0.00 68 1017.1
20260505063236 11 0.0 0.0 0.00 0.00 0.00 68 1017.2
20260505062217 11 0.0 0.0 0.00 0.00 0.00 68 1017.3
20260505061236 11 0.0 0.0 0.00 0.00 0.00 68 1017.6
20260505060216 11 0.0 0.0 0.00 0.00 0.00 66 1017.7
20260505055216 11 0.0 0.0 0.00 0.00 0.00 68 1017.4
20260505054216 11 0.0 0.0 0.00 0.00 0.00 66 1017.4
20260505053216 11 0.0 0.0 0.00 0.00 0.00 69 1017.5
20260505052217 11 0.0 0.0 0.00 0.00 0.00 69 1017.2
20260505051216 11 0.0 0.0 0.00 0.00 0.00 68 1017.2
20260505050216 12 0.0 0.0 0.00 0.00 0.00 68 1017.3
20260505041216 12 0.0 0.0 0.00 0.00 0.00 68 1016.6
20260505040312 12 0.0 0.0 0.00 0.00 0.00 70 1016.8
20260505035216 12 0.0 0.0 0.00 0.00 0.00 69 1016.6
20260505034216 12 0.0 0.0 0.00 0.00 0.00 68 1016.7
20260505033236 12 0.0 0.0 0.00 0.00 0.00 67 1016.9
20260505032217 12 0.0 0.0 0.00 0.00 0.00 66 1016.7
20260505031216 12 0.0 0.0 0.00 0.00 0.00 64 1016.6
20260505030216 12 0.0 0.0 0.00 0.00 0.00 64 1016.7
20260505025216 12 0.0 0.0 0.00 0.00 0.00 65 1016.3
20260505024217 12 0.0 0.0 0.00 0.00 0.00 64 1016.3
20260505023216 12 0.0 0.0 0.00 0.00 0.00 63 1016.3
20260505022216 12 0.0 0.0 0.00 0.00 0.00 65 1016.0
20260505021217 12 0.0 0.0 0.00 0.00 0.00 64 1016.0
20260505020216 12 0.0 0.0 0.00 0.00 0.00 64 1016.0
20260505015236 13 0.0 0.0 0.00 0.00 0.00 66 1015.9
20260505014216 13 0.0 0.0 0.00 0.00 0.00 63 1015.7
20260505013216 13 0.0 0.0 0.00 0.00 0.00 64 1015.7
20260505012216 13 0.0 0.0 0.00 0.00 0.00 63 1015.5
20260505011236 13 0.0 0.0 0.00 0.00 0.00 61 1015.4
20260505010216 14 0.0 0.0 0.00 0.00 0.00 61 1015.5
20260505005236 14 0.0 0.0 0.00 0.00 0.00 60 1015.1
20260505004236 15 0.0 0.0 0.00 0.00 0.00 60 1015.0
20260505003216 15 0.0 0.0 0.00 0.00 0.00 61 1015.0
20260505002216 15 0.0 0.0 0.00 0.00 0.00 61 1014.6
20260505001216 15 0.0 0.0 0.00 0.00 0.00 60 1014.9
20260505000236 15 0.0 1.6 0.00 0.00 0.00 60 1014.9
20260504235236 16 0.0 0.0 0.00 0.00 0.00 59 1014.5
20260504234216 16 0.0 0.0 0.00 0.00 0.00 58 1014.4
20260504233216 16 0.0 0.0 0.00 0.00 0.00 57 1014.6
20260504232216 16 90 1.6 3.2 0.00 0.00 0.00 57 1014.5
20260504231236 16 68 1.6 6.4 0.00 0.00 0.00 57 1014.4
20260504230216 17 113 1.6 3.2 0.00 0.00 0.00 55 1014.3
20260504225216 17 0.0 0.0 0.00 0.00 0.00 54 1014.3
20260504224216 17 113 1.6 4.8 0.00 0.00 0.00 53 1014.6
20260504223216 17 0.0 1.6 0.00 0.00 0.00 52 1014.6
20260504222216 18 0.0 1.6 0.00 0.00 0.00 52 1014.6
20260504221236 18 0.0 0.0 0.00 0.00 0.00 51 1014.5
20260504220236 18 0.0 1.6 0.00 0.00 0.00 50 1014.8
20260504215216 18 0.0 0.0 0.00 0.00 0.00 48 1014.8
20260504214216 19 113 3.2 9.7 0.00 0.00 0.00 47 1014.9
20260504213216 19 0.0 0.0 0.00 0.00 0.00 43 1014.7
20260504212236 19 0.0 1.6 0.00 0.00 0.00 41 1014.8
20260504211216 20 0.0 0.0 0.00 0.00 0.00 41 1014.9
20260504210216 20 0.0 0.0 0.00 0.00 0.00 39 1014.8
20260504205216 20 90 3.2 4.8 0.00 0.00 0.00 38 1014.8
20260504204216 20 0.0 0.0 0.00 0.00 0.00 37 1014.8
20260504203216 20 0.0 1.6 0.00 0.00 0.00 36 1015.0
20260504202216 20 90 1.6 3.2 0.00 0.00 0.00 37 1015.1
20260504201216 21 0.0 1.6 0.00 0.00 0.00 36 1015.3
20260504200215 21 90 1.6 3.2 0.00 0.00 0.00 35 1015.4
20260504195215 21 0.0 1.6 0.00 0.00 0.00 32 1015.3
20260504194216 21 113 3.2 4.8 0.00 0.00 0.00 31 1015.5
20260504193256 21 68 4.8 8.0 0.00 0.00 0.00 32 1015.6
20260504192236 21 0.0 0.0 0.00 0.00 0.00 34 1015.9
20260504191216 21 0.0 0.0 0.00 0.00 0.00 33 1015.9
20260504190215 21 90 4.8 6.4 0.00 0.00 0.00 30 1016.0
20260504185216 21 0.0 1.6 0.00 0.00 0.00 35 1016.2
20260504184215 22 0.0 1.6 0.00 0.00 0.00 34 1016.7
20260504183215 22 113 1.6 4.8 0.00 0.00 0.00 32 1017.1
20260504182256 23 0.0 1.6 0.00 0.00 0.00 32 1017.1
20260504181215 22 68 3.2 3.2 0.00 0.00 0.00 29 1017.1
20260504180216 22 68 1.6 6.4 0.00 0.00 0.00 29 1017.1
20260504175215 22 203 1.6 4.8 0.00 0.00 0.00 30 1017.3
20260504174215 22 113 1.6 3.2 0.00 0.00 0.00 35 1017.6
20260504173215 22 0.0 1.6 0.00 0.00 0.00 33 1017.7
20260504172215 21 113 1.6 3.2 0.00 0.00 0.00 32 1017.8
20260504171216 22 45 3.2 8.0 0.00 0.00 0.00 35 1018.2
20260504170236 21 0.0 1.6 0.00 0.00 0.00 38 1018.1
20260504160215 17 180 1.6 4.8 0.00 0.00 0.00 45 1018.5
20260504150215 14 90 3.2 4.8 0.00 0.00 0.00 52 1018.5
20260504141215 12 0.0 1.6 0.00 0.00 0.00 58 1018.5
20260504140215 11 0.0 1.6 0.00 0.00 0.00 62 1018.4
20260504130215 8 0.0 0.0 0.00 0.00 0.00 73 1017.6
20260504120217 7 0.0 0.0 0.00 0.00 0.00 75 1017.4
20260504110217 5 0.0 0.0 0.00 0.00 0.00 78 1017.1